User: anonymous   Login
Location: Abraham Lincoln Continuation High School
(33.9711°N, 117.3662°W)
Time: 02:36:01
(UTC+00:00)
Language:

Cosmos 2112 Rocket - Orbit

View from above orbital plane
View from above orbital plane
View from above satellite
View from above satellite

Ground track
Ground track

The orbit data is extracted from the following two-line orbital elements,

1 21015U 90111B   20334.54153681  .00000007  00000-0  11349-4 0  9995
2 21015  74.0507 343.4757 0023018 295.0990 182.6796 14.36019025667172
Epoch (UTC): 29 November 2020 12:59:48
Eccentricity: 0.0023018
inclination: 74.0507°
perigee height: 755 km
apogee height: 788 km
right ascension of ascending node: 343.4757°
argument of perigee: 295.0990°
revolutions per day: 14.36019025
mean anomaly at epoch: 182.6796°
orbit number at epoch: 66717

The dashed part of the orbit path shows where the satellite is in the earth's shadow,  

DLR